Location: Eschentzwiller
(47.7125°N, 7.3981°E)
Time: 00:59:46
(UTC+00:00)

USA 307 - Pass Details

Date: 27 October 2020
Orbit: 569 x 579 km, 54.0° (Epoch: 23 November)

Event Time Altitude Azimuth Distance (km) Brightness Sun altitude
Rises 18:34:26 0° 299° (WNW) 2,789 7.5 -23.1°
Reaches altitude 10° 18:36:42 10° 299° (WNW) 1,886 6.5 -23.5°
Enters shadow 18:40:50 78° 246° (WSW) 591 2.9 -24.2°
